AirNav   Everest Fuels
 
 1073 users online  

2MO3 Independence Regional Health Center Heliport
Independence, Missouri, USA

GOING TO INDEPENDENCE?


FAA INFORMATION EFFECTIVE 31 DECEMBER 2020

Location

FAA Identifier: 2MO3
Lat/Long: 39-05-38.9100N 094-26-06.4500W
39-05.648500N 094-26.107500W
39.0941417,-94.4351250
(estimated)
Elevation: 952 ft. / 290 m (estimated)
Variation: 05E (1990)
Time zone: UTC -6 (UTC -5 during Daylight Saving Time)
Zip code: 64050

Heliport Operations

Heliport use: Private use, MEDICAL USE.
Activation date: 03/1993
Control tower: no
ARTCC: KANSAS CITY CENTER
FSS: COLUMBIA FLIGHT SERVICE STATION
Attendance: CONTINUOUS
Wind indicator: yes
Segmented circle: no

Heliport Communications

WX ASOS at MKC (8 nm W): PHONE 816-329-2843
WX ASOS at LXT (9 nm S): 124.175 (816-347-9807)
WX AWOS-3 at GPH (15 nm N): 120.275 (816-407-3399)
WX ASOS at MCI (18 nm NW): PHONE 816-329-2808

Nearby radio navigation aids

VOR radial/distance  VOR name  Freq  Var
ANXr263/14.3NAPOLEON VORTAC114.0007E
MCIr124/18.1KANSAS CITY VORTAC113.2505E

Heliport Services

Runway Information

Helipad H1

Dimensions: 30 x 30 ft. / 9 x 9 m
Surface: asphalt
Latitude: 39-05.648500N
Longitude: 094-26.107500W
Elevation: 952.0 ft.
Traffic pattern: leftleft

Heliport Ownership and Management from official FAA records

Ownership: Privately-owned
Owner: INDEPENDENCE REGIONAL HEALTH
1509 W. TRUMAN ROAD
INDEPENDENCE, MO 64050
Phone 816-836-8100
Manager: EDDIE JORGENSON
1509 W. TRUMAN ROAD
INDEPENDENCE, MO 64050
Phone 816-836-8100

Additional Remarks

OWNER DESIRES HELIPORT NOT BE CHARTED.
FOR CD CTC KANSAS CITY APCH AT 816-329-2710.

Instrument Procedures

There are no published instrument procedures at 2MO3.

Some nearby airports with instrument procedures:

KMKC - Charles B Wheeler Downtown Airport (8 nm W)
KLXT - Lee's Summit Municipal Airport (9 nm S)
3GV - East Kansas City Airport (11 nm SE)
KGPH - Midwest NTL Air Center Airport (15 nm N)
KMCI - Kansas City International Airport (18 nm NW)
3EX - Excelsior Springs Memorial Airport (18 nm NE)
 
Loc | Ops | Rwys | IFR | FBO | Links
Com | Nav | Svcs | Stats | Notes
Area around 2MO3 (Independence Regional Health Center Heliport)
 
Road maps at: MapQuest Bing Google
 
Aerial photo
No photo
 
Sectional chart

 
Airport distance calculator
Flying to Independence Regional Health Center Heliport? Find the distance to fly.

From to 2MO3

Sunrise and sunset
Times for 23-Jan-2021
 Local
(UTC-6)
 Zulu
(UTC)
Morning civil twilight07:0413:04
Sunrise07:3213:32
Sunset17:2723:27
Evening civil twilight17:5623:56

Current date and time
Zulu (UTC)  23-Jan-2021 21:55:38
Local (UTC-6)  23-Jan-2021 15:55:38
 
METAR
KMKC 
8nm W 
232054Z 13012G20KT 10SM CLR 04/M13 A3002 RMK AO2 SLP172 T00441128 56047
KLXT 
8nm SE 
232053Z AUTO 14012KT 10SM SCT070 BKN095 04/M12 A3002 RMK AO2 SLP176 T00391117 56049 $
KGPH 
15nm N 
232135Z AUTO 15008KT 10SM SCT090 04/M11 A3003 RMK AO2
KMCI 
19nm NW 
232053Z 12013KT 10SM BKN070 BKN200 06/M11 A3001 RMK AO2 SLP169 T00561111 56048
TAF
KMKC 
8nm W 
231737Z 2318/2418 13011G18KT P6SM SCT250 FM240400 16008KT P6SM OVC026 FM240600 17008KT P6SM OVC020 FM241100 VRB04KT 4SM -DZ BR OVC009 FM241500 VRB03KT P6SM OVC004 FM241700 01005KT P6SM OVC008
KMCI 
19nm NW 
231737Z 2318/2418 14012G18KT P6SM BKN180 FM240300 15010KT P6SM OVC030 FM240500 17010KT P6SM OVC020 FM241100 VRB05KT 4SM -DZ BR OVC010 FM241500 02005KT P6SM OVC007
NOTAMs
Click for the latest NOTAMs
NOTAMs are issued by the DoD/FAA and will open in a separate window not controlled by AirNav.

 

 
 

Would you like to see your business listed on this page?

 If your business provides an interesting product or service to pilots, flight crews, aircraft, or users of the Independence Regional Health Center Heliport, you should consider listing it here.  To start the listing process, click on the button below
 
Add a business
 

Other Pages about Independence Regional Health Center Heliport

Update a link
 
Copyright © AirNav, LLC. All rights reserved. Privacy Policy  Contact